Regional Weather Roundup
Issued by NWS

Home | Current Version | Previous Version | Text Only | Print | Product List | Glossary On
Versions: 1 2 3 4 5 6 7 8 9 10 11 12 13 14 15 16 17 18 19 20 21 22 23 24 25 26 27 28 29 30 31 32 33 34 35 36 37 38 39 40 41 42 43 44 45 46 47 48 49 50
000
ASCA42 TJSJ 230411
RWRPR
PUERTO RICO/U.S. VIRGIN ISLANDS HOURLY WEATHER ROUNDUP
NATIONAL WEATHER SERVICE SAN JUAN PR
1200 AM AST SAT AUG 23 2014

PRZ001-004-230500-
PUERTO RICO

CITY           SKY/WX    TMP DP  RH WIND       PRES   REMARKS
SAN JUAN LMM   PTCLDY    79  75  89 E5        29.90S
PONCE          MOCLDY    77  77 100 CALM      29.87S
AGUADILLA      MOCLDY    75  73  94 SE3       29.90
CEIBA          PTCLDY    79  75  89 S7        29.94S
$$

PRZ006-007-230500-
U.S. VIRGIN ISLANDS

CITY           SKY/WX    TMP DP  RH WIND       PRES   REMARKS
CHRISTIANSTED  HVY RAIN  79  77  94 SE8       29.93  FOG
$$

HOURLY WEATHER ROUNDUP FOR THE NEWS MEDIA

CITY           SKY/WX    TMP DP  RH WIND       PRES   REMARKS
MIAMI          PTCLDY    83  73  72 E6        30.01F
ORLANDO        CLEAR     81  70  69 SW5       30.02S
NEW YORK       CLOUDY    70  60  70 NE8       30.07R
NEWARK         PTCLDY    71  59  65 E7        30.05S
CHICAGO        PTCLDY    79  70  74 NE5       29.99R
HARTFORD       MOCLDY    64  62  93 N6        30.07S
BOSTON         MOCLDY    65  61  87 NE10      30.10S
DALLAS         CLEAR     89  68  49 S15G24    29.96R HX  93
PHILADELPHIA   CLOUDY    70  62  76 NE6       30.04S


USA.gov is the U.S. government's official web portal to all federal, state and local government web resources and services.